{"data":{"norad_id":59795,"epoch":"2026-05-24T11:04:16.154976Z","epoch_age_seconds":111710,"freshness":"FRESH","line1":"1 59795U 24093P   26144.46129809  .00001272  00000+0  55720-4 0  9993","line2":"2 59795  43.0019 140.9785 0001298 255.5112 104.5596 15.27586942114284","mean_motion":15.27586942,"eccentricity":0.0001298,"inclination_deg":43.0019,"raan_deg":140.9785,"arg_perigee_deg":255.5112,"mean_anomaly_deg":104.5596,"bstar":5.572e-5,"rev_number":11428,"period_min":94.266320325747,"perigee_km":482.13773001586,"apogee_km":483.91888853015,"semimajor_km":6861.165309273,"source":"CELESTRAK","updated_at":"2026-05-25T13:38:19.082688Z"}}